STARLINK-33830, 63587

Orbit data source: Space-Track

STARLINK-33830, 63587 is a payload satellite owned by SpaceX/Seattle (US) in LEO that was launched on Mon, 14 Apr 2025 UTC via an FALCON 9 launch vehicle from the Air Force Eastern Test Range (AFETR). Payload-class satellites include a variety of spacecraft equipped with specific instruments for various scientific and technological missions. These include communications satellites like Starlink; space stations such as the ISS; scientific satellites like the Hubble; Earth observation satellites from companies like Planet Labs, Umbra, and HawkEye 360; GPS; miniature CubeSats for education and research; and military/defense satellites.

Loading next visibility...
Identifier
63587, 2025-076U
Orbit
LEO
Country
Flag of USUS
Related business
Manufacturer
SpaceX/Seattle
Mission
Operational Commercial Communications
Bus & Motor
STARLINK V2MO, Unknown motor
Mass
575 kg wet, ~530 kg dry
Launch date (UTC)
2025-04-14 (5 months ago)
Launch vehicle
FALCON 9
Launch site
Air Force Eastern Test Range (AFETR)
Object type
Payload
Rocket body
Debris
Shape & HBR
Box + 1 Pan, 14.5 m
Radar Cross Section
41.120 m², Large (>1 m²)

Expand to show TLE details & history
Last TLE update: 22 hours ago

TLE from 22 hours ago
0 STARLINK-33830
1 63587U 25076U   25261.22110708  .00018247  00000-0  67056-3 0  9995
2 63587  42.9989 215.6941 0001944 254.0037 106.0600 15.27599048 25458
Epoch: 2025-09-18T05:18Z
TLE epoch observation values (Epoch: 2025-09-18T05:18:23.651Z)
Latitude
-0.00007°
Longitude
138.70966°
Altitude
483.137 km
Speed
7.625 km/s
True Right ascension
14h 22m 46s
True Declination
0° 00' 00"
Sunlit
Object was in daylight at epoch
Visualization orbit readout
Latitude
Unknown
Longitude
Unknown
Altitude
Unknown
Speed
Unknown
Apparent Right ascension
Unknown
Apparent Declination
Unknown
Sunlit
N/A
Visualization observer readout
Local Sidereal Time
20:04:06
Azimuth
Unknown
Elevation
Unknown
Doppler factor
Unknown
Orbital elements
Apogee altitude
486.272 km
Perigee altitude
483.603 km
Semi-major axis
6,863.074 km
Eccentricity
0.00019
Inclination
42.9989°
RAAN
215.6941°
Arg. of periapsis
254.0037°
True anomaly
106.08141°
Mean anomaly
106.06°
Eccentric anomaly
106.0707°
Mean motion
3.81738 °/min
Orbital period
94.31 mins
BSTAR
0.00067056
Loading maneuver chart data...
Computing Atmospheric mass density...
Loading historical data...
Loading historical data...
Loading historical data...
Loading historical data...
Loading historical data...
Loading historical data...
Loading historical data...

Documentation

Showing up to 5 results
|